This is the latest recevied weather packets stored in our database for station/object OE-11121. If no packets are shown the sender has not sent any weather packets the latest 10 day(s).
| Time | Temp. | Humidity | Pressure | Rain* | Wind** | Luminosity | Snow |
|---|---|---|---|---|---|---|---|
| 1788067533 | 15° C | 87% | 1018.9 hPa | 0 mm | - | 24 W/m² | - |
| 1788066706 | 15° C | 86% | 1018.9 hPa | 0 mm | - | 12 W/m² | - |
| 1788066332 | 15° C | 88% | 1018.9 hPa | 0 mm | - | 12 W/m² | - |
| 1788065732 | 15° C | 87% | 1018.9 hPa | 0 mm | - | 0 W/m² | - |
| 1788064905 | 14.44° C | 86% | 1019 hPa | 0 mm | - | 0 W/m² | - |
| 1788064532 | 14.44° C | 87% | 1019 hPa | 0 mm | - | 0 W/m² | - |
| 1788063932 | 14.44° C | 88% | 1018.9 hPa | 0 mm | - | 0 W/m² | - |
| 1788063105 | 14.44° C | 87% | 1018.8 hPa | 0 mm | - | 0 W/m² | - |
| 1788062732 | 14.44° C | 87% | 1018.9 hPa | 0 mm | - | 0 W/m² | - |
| 1788062132 | 14.44° C | 86% | 1018.7 hPa | 0 mm | - | 0 W/m² | - |
| 1788061533 | 15° C | 84% | 1018.5 hPa | 0 mm | - | 0 W/m² | - |
| 1788060932 | 15° C | 85% | 1018.5 hPa | 0 mm | - | 0 W/m² | - |
| 1788060332 | 15.56° C | 84% | 1018.5 hPa | 0 mm | - | 0 W/m² | - |
| 1788059506 | 15° C | 86% | 1018.5 hPa | 0 mm | - | 0 W/m² | - |
| 1788059133 | 15.56° C | 82% | 1018.4 hPa | 0 mm | - | 0 W/m² | - |
| 1788058533 | 15.56° C | 83% | 1018.3 hPa | 0 mm | - | 0 W/m² | - |
| 1788057706 | 15.56° C | 82% | 1018.3 hPa | 0 mm | - | 0 W/m² | - |
| 1788057333 | 15.56° C | 83% | 1018.2 hPa | 0 mm | - | 0 W/m² | - |
| 1788056733 | 15.56° C | 84% | 1018.3 hPa | 0 mm | - | 0 W/m² | - |
| 1788055906 | 15.56° C | 83% | 1018.2 hPa | 0 mm | - | 0 W/m² | - |
| 1788055533 | 15.56° C | 83% | 1018.3 hPa | 0 mm | - | 0 W/m² | - |
| 1788054932 | 15.56° C | 84% | 1018.4 hPa | 0 mm | - | 0 W/m² | - |
| 1788054106 | 15.56° C | 82% | 1018.2 hPa | 0 mm | - | 0 W/m² | - |
| 1788053732 | 15.56° C | 83% | 1018.2 hPa | 0 mm | - | 0 W/m² | - |
| 1788053133 | 15.56° C | 82% | 1018.2 hPa | 0 mm | - | 0 W/m² | - |
* Rain latest hour (hover to see other rain measurements)
** Current wind speed in m/s (hover to see current wind gust speed)